Regional Weather Roundup
Issued by NWS Northern Indiana

Home | Current Version | Previous Version | Text Only | Print | Product List | Glossary On
Versions: 1 2 3 4 5 6 7 8 9 10 11 12 13 14 15 16 17 18 19 20 21 22 23 24 25 26 27 28 29 30 31 32 33 34 35 36 37 38 39 40 41 42 43 44 45 46 47 48 49 50
000
ASUS43 KIWX 310610
RWRIWX

KIWX WEATHER ROUNDUP
NATIONAL WEATHER SERVICE NORTHERN INDIANA
200 AM EDT SAT JUL 31 2021

NOTE: "FAIR" INDICATES FEW OR NO CLOUDS BELOW 12,000 FEET WITH NO
SIGNIFICANT WEATHER AND/OR OBSTRUCTIONS TO VISIBILITY.

* THESE STATIONS ARE NOT UNDER NWS QUALITY CONTROL. THEY ALSO MAY NOT
  REPORT WEATHER SUCH AS PRECIPITATION OR FOG.

INZ001>027-310700-
NORTHERN INDIANA

CITY           SKY/WX    TMP DP  RH WIND       PRES   REMARKS
GARY*          MOCLDY    67  57  72 N6        30.11S
VALPARAISO     MOCLDY    62  59  90 CALM      30.11F
6HR MIN TEMP:  62; 6HR MAX TEMP:  66;

MICHIGAN CITY* MOCLDY    59  54  82 CALM      30.10F
LAPORTE*       MOCLDY    60  59  94 CALM      30.11S
6HR MIN TEMP:  60; 6HR MAX TEMP:  65;

SOUTH BEND     PTCLDY    62  56  80 CALM      30.09F
6HR MIN TEMP:  62; 6HR MAX TEMP:  67;

GOSHEN         MOCLDY    62  57  83 NW6       30.09F
6HR MIN TEMP:  62; 6HR MAX TEMP:  68;

MONTICELLO*    CLOUDY    63  56  78 CALM      30.10F
6HR MIN TEMP:  63; 6HR MAX TEMP:  68;

LOGANSPORT*    CLOUDY    61  57  88 CALM      30.10F
ROCHESTER*     CLOUDY    63  59  88 CALM      30.10F
PLYMOUTH*      PTCLDY    63  57  82 CALM      30.09F
WARSAW*        CLOUDY    61  55  82 CALM      30.09F
AUBURN*        CLOUDY    63  59  88 CALM      30.08F
FORT WAYNE     CLOUDY    65  58  78 N5        30.08F
6HR MIN TEMP:  64; 6HR MAX TEMP:  72;

HUNTINGTON*    CLOUDY    63  57  82 CALM      30.09S
6HR MIN TEMP:  63; 6HR MAX TEMP:  71;

PERU/GRISSOM   CLOUDY    64  57  79 NW3       30.09S
6HR MIN TEMP:  64; 6HR MAX TEMP:  71;


$$
INZ028>050-310700-
CENTRAL INDIANA

CITY           SKY/WX    TMP DP  RH WIND       PRES   REMARKS
LAFAYETTE      CLOUDY    66  57  72 NE6       30.09F
6HR MIN TEMP:  64; 6HR MAX TEMP:  70;

KOKOMO*        CLOUDY    63  62  97 NW5       30.11S
6HR MIN TEMP:  63; 6HR MAX TEMP:  72;

MARION*        CLOUDY    63  60  90 CALM      30.10F
6HR MIN TEMP:  57; 6HR MAX TEMP:  86;

MUNCIE*        MOCLDY    67  61  81 N5        30.08F
6HR MIN TEMP:  67; 6HR MAX TEMP:  74;

PORTLAND*      MOCLDY    64  59  82 CALM      30.08F
INDIANAPOLIS   MOCLDY    67  56  67 NE8       30.08F
6HR MIN TEMP:  67; 6HR MAX TEMP:  76;


$$
MIZ043>046-050>051-056>058-064>065-071>073-077>080-310700-
SOUTHWEST LOWER MICHIGAN

CITY           SKY/WX    TMP DP  RH WIND       PRES   REMARKS
BATTLE CREEK   PTCLDY    61  56  83 NW5       30.08F
6HR MIN TEMP:  60; 6HR MAX TEMP:  71;

BENTON HARBOR  PTCLDY    57  54  89 CALM      30.08F
6HR MIN TEMP:  56; 6HR MAX TEMP:  67;

HOLLAND        CLEAR     58  50  75 CALM      30.10S
6HR MIN TEMP:  56; 6HR MAX TEMP:  68;

GRAND RAPIDS   CLEAR     59  53  80 N3        30.09F
6HR MIN TEMP:  59; 6HR MAX TEMP:  71;

KALAMAZOO      PTCLDY    60  54  80 N6        30.08F
6HR MIN TEMP:  60; 6HR MAX TEMP:  70;


$$
OHZ001>008-015>018-024>025-310700-
NORTHWEST OHIO

CITY           SKY/WX    TMP DP  RH WIND       PRES   REMARKS
WAUSEON*       FAIR      63  63 100 CALM      30.06F
DEFIANCE       CLOUDY    65  59  81 NW3       30.07S
6HR MIN TEMP:  64; 6HR MAX TEMP:  75;

FINDLAY        CLOUDY    68  60  75 E6        30.06F
6HR MIN TEMP:  65; 6HR MAX TEMP:  75;

TOLEDO EXPRESS MOCLDY    67  58  72 SE3       30.06F
6HR MIN TEMP:  66; 6HR MAX TEMP:  76;

VAN WERT*      FAIR      64  61  88 NW5       30.08S
LIMA           CLOUDY    66  60  81 CALM      30.07F
6HR MIN TEMP:  65; 6HR MAX TEMP:  72;


$$
AND FOR LAKE MICHIGAN COASTAL AND OPEN LAKE BUOY OBSERVATIONS

STATION/POSITION TEMP    WIND        PRES    VSBY  WAVE
                 AIR SEA DIR/SP/G                  HT/PER
                 (F)     (DEG/KT/KT) (MB)    (MI)  (FT/S)
CALUMET HARBOR           350/  4/  6 1019.0S
MICHIGAN CITY     69      20/ 13/ 15 1018.6F
BURNS HARBOR      69      30/  7/  9 1019.6
SAINT JOSEPH      63      80/  2/  4 1019.0
SOUTH LAKE BUOY   68 71   30/ 10/ 12 1018.9F         3/ 5
4 MI NW BRIDGMAN  69 74   20/ 10/ 14 1018.7          3/ 6
MICHIGAN CITY     69      30/ 10/ 12   N/A           3/ 5

$$
&&



USA.gov is the U.S. government's official web portal to all federal, state and local government web resources and services.